Project,Study,Ord_Occ,Event_Num,Cast_ID,Date_Time_UTC,Date_Time_PST,Lat_Dec,Lon_Dec,Sta_ID,Line,Sta,Depth,Pressure,PrQ,Temp1,Temp1Q,Temp2,Temp2Q,TempAve,Salt1,Salt1Q,Salt1_Corr,Salt2,Salt2Q,Salt2_Corr,SaltAve_Corr,Ox1,Ox1Q,Ox1_CruiseCorr,Ox1_StaCorr,Ox2,Ox2Q,Ox2_CruiseCorr,Ox2_StaCorr,OxAve_StaCorr,Ox1uM,Ox1uM_CruiseCorr,Ox1uM_StaCorr,Ox2uM,Ox2uM_CruiseCorr,Ox2uM_StaCorr,OxAveuM_StaCorr,FluorV,FluorQ,EstChl_CruiseCorr,EstChl_StaCorr,ISUSV,ISUSQ,EstNO3_CruiseCorr,EstNO3_StaCorr,SigThetaTS1,SigThetaTS1Q,SigThetaTS2,SigThetaTS2Q,BAT,XMiss,TransQ,pH,pHQ,SPAR,SPARQ,PAR,PARQ,PoT1,PoT2,DynHt,SVA,OxSat1,OxSat2,BTL_Depth,BTL_Temp,SaltB,OxB,OxBuM,Chl-a,Phaeo,NO3,NO2,NH4,PO4,SIL
CalCOFI,2101RL,060,,2101_060u,31-Jan-2021 02:18:18,30-Jan-2021 18:18:18,34.31542,-120.80548,080.0 055.0,080.0,055.0,516.000,520.376,,6.3406,,6.3370,,6.3388,34.2806,,34.2864,34.2788,,34.2808,34.2836,0.3724,,0.3897,0.4206,0.3746,,0.3959,0.4365,0.4286,16.197,17.2152,67.4613,16.292,18.4637,67.0157,67.2385,,,,, ,, , ,26.9465,,26.9455,,0.7548,82.8044,,,,3.6947E+00,,1.0000E-12,,6.2939,6.2903,0.8734,117.541,5.408,5.439,,,,,,,,,,,,
CalCOFI,2101RL,060,,2101_060u,31-Jan-2021 02:18:21,30-Jan-2021 18:18:21,34.31542,-120.80549,080.0 055.0,080.0,055.0,515.000,519.366,,6.3458,,6.3477,,6.3468,34.2802,,34.2860,34.2777,,34.2797,34.2829,0.3703,,0.3875,0.4184,0.3765,,0.3979,0.4385,0.4285,16.103,17.1168,67.4399,16.372,18.3592,67.0345,67.2372,,,,, ,, , ,26.9455,,26.9433,,0.7512,82.8770,,,,3.6947E+00,,1.0000E-12,,6.2991,6.3011,0.8734,117.627,5.377,5.467,515,,34.2833,0.420,18.33,,,,,,,
CalCOFI,2101RL,060,,2101_060u,31-Jan-2021 02:19:27,30-Jan-2021 18:19:27,34.31545,-120.80562,080.0 055.0,080.0,055.0,514.000,518.356,,6.3129,,6.3179,,6.3154,34.2825,,34.2883,34.2799,,34.2819,34.2851,0.3619,,0.3787,0.4095,0.3658,,0.3865,0.4271,0.4183,15.738,16.7347,67.3571,15.906,17.9533,66.9248,67.1410,,,,, ,, , ,26.9516,,26.9489,,0.7508,82.8851,,,,3.6947E+00,,1.0000E-12,,6.2665,6.2715,0.8809,117.000,5.251,5.308,,,,,,,,,,,,
CalCOFI,2101RL,060,,2101_060u,31-Jan-2021 02:20:04,30-Jan-2021 18:20:04,34.31550,-120.80570,080.0 055.0,080.0,055.0,513.000,517.346,,6.3151,,6.3160,,6.3156,34.2822,,34.2880,34.2800,,34.2820,34.2850,0.3618,,0.3786,0.4094,0.3647,,0.3853,0.4259,0.4177,15.733,16.7295,67.3560,15.860,17.9478,66.9140,67.1350,,,,, ,, , ,26.9510,,26.9491,,0.7527,82.8472,,,,3.6947E+00,,1.0000E-12,,6.2688,6.2696,0.8850,117.040,5.250,5.292,,,,,,,,,,,,
CalCOFI,2101RL,060,,2101_060u,31-Jan-2021 02:20:05,30-Jan-2021 18:20:05,34.31550,-120.80570,080.0 055.0,080.0,055.0,512.000,516.337,,6.3147,,6.3156,,6.3152,34.2821,,34.2879,34.2799,,34.2819,34.2849,0.3632,,0.3800,0.4109,0.3656,,0.3863,0.4269,0.4189,15.796,16.7955,67.3703,15.898,18.0178,66.9230,67.1467,,,,, ,, , ,26.9510,,26.9491,,0.7507,82.8879,,,,3.6947E+00,,1.0000E-12,,6.2684,6.2694,0.8849,117.026,5.271,5.305,,,,,,,,,,,,
CalCOFI,2101RL,060,,2101_060u,31-Jan-2021 02:20:06,30-Jan-2021 18:20:06,34.31550,-120.80572,080.0 055.0,080.0,055.0,511.000,515.327,,6.3154,,6.3157,,6.3156,34.2817,,34.2875,34.2797,,34.2817,34.2846,0.3700,,0.3871,0.4181,0.3657,,0.3864,0.4270,0.4226,16.089,17.1022,67.4368,15.903,18.3436,66.9241,67.1805,,,,, ,, , ,26.9506,,26.9489,,0.7515,82.8720,,,,3.6947E+00,,1.0000E-12,,6.2693,6.2696,0.8849,117.050,5.369,5.307,,,,,,,,,,,,
CalCOFI,2101RL,060,,2101_060u,31-Jan-2021 02:20:07,30-Jan-2021 18:20:07,34.31550,-120.80572,080.0 055.0,080.0,055.0,510.000,514.317,,6.3202,,6.3207,,6.3205,34.2809,,34.2867,34.2789,,34.2809,34.2838,0.3727,,0.3900,0.4209,0.3686,,0.3895,0.4301,0.4255,16.207,17.2257,67.4635,16.031,18.4748,66.9543,67.2089,,,,, ,, , ,26.9493,,26.9476,,0.7530,82.8392,,,,3.6947E+00,,1.0000E-12,,6.2742,6.2747,0.8849,117.160,5.409,5.350,,,,,,,,,,,,
CalCOFI,2101RL,060,,2101_060u,31-Jan-2021 02:20:08,30-Jan-2021 18:20:08,34.31550,-120.80572,080.0 055.0,080.0,055.0,509.000,513.308,,6.3370,,6.3354,,6.3362,34.2795,,34.2853,34.2776,,34.2796,34.2825,0.3744,,0.3917,0.4227,0.3795,,0.4011,0.4417,0.4322,16.283,17.3052,67.4808,16.503,18.5594,67.0653,67.2731,,,,, ,, , ,26.9460,,26.9447,,0.7552,82.7957,,,,3.6947E+00,,1.0000E-12,,6.2910,6.2894,0.8849,117.477,5.436,5.509,,,,,,,,,,,,
CalCOFI,2101RL,060,,2101_060u,31-Jan-2021 02:20:09,30-Jan-2021 18:20:09,34.31550,-120.80572,080.0 055.0,080.0,055.0,508.000,512.298,,6.3478,,6.3500,,6.3489,34.2789,,34.2847,34.2767,,34.2787,34.2817,0.3773,,0.3948,0.4257,0.3783,,0.3998,0.4404,0.4331,16.409,17.4371,67.5094,16.450,18.6995,67.0529,67.2812,,,,, ,, , ,26.9441,,26.9421,,0.7560,82.7775,,,,3.6947E+00,,1.0000E-12,,6.3018,6.3040,0.8849,117.653,5.479,5.493,,,,,,,,,,,,
CalCOFI,2101RL,060,,2101_060u,31-Jan-2021 02:20:10,30-Jan-2021 18:20:10,34.31550,-120.80572,080.0 055.0,080.0,055.0,507.000,511.288,,6.3586,,6.3615,,6.3601,34.2788,,34.2846,34.2766,,34.2786,34.2816,0.3772,,0.3947,0.4256,0.3704,,0.3914,0.4320,0.4288,16.405,17.4330,67.5085,16.107,18.6950,66.9721,67.2403,,,,, ,, , ,26.9427,,26.9405,,0.7556,82.7871,,,,3.6947E+00,,1.0000E-12,,6.3127,6.3156,0.8849,117.789,5.480,5.380,,,,,,,,,,,,
CalCOFI,2101RL,060,,2101_060u,31-Jan-2021 02:20:10,30-Jan-2021 18:20:10,34.31550,-120.80572,080.0 055.0,080.0,055.0,506.000,510.278,,6.3686,,6.3701,,6.3694,34.2784,,34.2842,34.2763,,34.2783,34.2813,0.3791,,0.3967,0.4276,0.3732,,0.3944,0.4350,0.4313,16.488,17.5198,67.5273,16.228,18.7873,67.0006,67.2640,,,,, ,, , ,26.9411,,26.9392,,0.7540,82.8198,,,,3.6947E+00,,1.0000E-12,,6.3227,6.3242,0.8849,117.939,5.508,5.422,,,,,,,,,,,,
CalCOFI,2101RL,060,,2101_060u,31-Jan-2021 02:20:11,30-Jan-2021 18:20:11,34.31550,-120.80572,080.0 055.0,080.0,055.0,505.000,509.269,,6.3806,,6.3774,,6.3790,34.2780,,34.2838,34.2755,,34.2775,34.2807,0.3743,,0.3916,0.4226,0.3827,,0.4045,0.4451,0.4339,16.280,17.3021,67.4801,16.642,18.5560,67.0980,67.2891,,,,, ,, , ,26.9391,,26.9376,,0.7538,82.8244,,,,3.6947E+00,,1.0000E-12,,6.3348,6.3316,0.8849,118.119,5.441,5.561,,,,,,,,,,,,
CalCOFI,2101RL,060,,2101_060u,31-Jan-2021 02:20:12,30-Jan-2021 18:20:12,34.31550,-120.80572,080.0 055.0,080.0,055.0,504.000,508.259,,6.3845,,6.3740,,6.3793,34.2785,,34.2843,34.2761,,34.2781,34.2812,0.3801,,0.3977,0.4287,0.3785,,0.4000,0.4406,0.4347,16.532,17.5659,67.5373,16.462,18.8363,67.0557,67.2965,,,,, ,, , ,26.9391,,26.9385,,0.7548,82.8031,,,,3.6947E+00,,1.0000E-12,,6.3388,6.3283,0.8849,118.118,5.525,5.500,,,,,,,,,,,,
CalCOFI,2101RL,060,,2101_060u,31-Jan-2021 02:20:13,30-Jan-2021 18:20:13,34.31552,-120.80574,080.0 055.0,080.0,055.0,503.000,507.249,,6.3774,,6.3815,,6.3795,34.2787,,34.2845,34.2758,,34.2778,34.2812,0.3854,,0.4033,0.4343,0.3822,,0.4039,0.4446,0.4395,16.760,17.8046,67.5890,16.619,19.0898,67.0926,67.3408,,,,, ,, , ,26.9401,,26.9373,,0.7546,82.8072,,,,3.6947E+00,,1.0000E-12,,6.3318,6.3359,0.8849,117.994,5.601,5.554,,,,,,,,,,,,
CalCOFI,2101RL,060,,2101_060u,31-Jan-2021 02:20:14,30-Jan-2021 18:20:14,34.31552,-120.80574,080.0 055.0,080.0,055.0,502.000,506.240,,6.4089,,6.4150,,6.4120,34.2772,,34.2830,34.2742,,34.2762,34.2796,0.3898,,0.4079,0.4389,0.3888,,0.4109,0.4516,0.4453,16.951,18.0045,67.6323,16.907,19.3022,67.1604,67.3964,,,,, ,, , ,26.9348,,26.9317,,0.7531,82.8386,,,,3.6947E+00,,1.0000E-12,,6.3633,6.3693,0.8849,118.517,5.668,5.654,,,,,,,,,,,,
CalCOFI,2101RL,060,,2101_060u,31-Jan-2021 02:20:15,30-Jan-2021 18:20:15,34.31552,-120.80574,080.0 055.0,080.0,055.0,501.000,505.230,,6.4333,,6.4377,,6.4355,34.2750,,34.2808,34.2728,,34.2748,34.2778,0.3907,,0.4088,0.4398,0.3886,,0.4107,0.4514,0.4456,16.992,18.0474,67.6416,16.898,19.3478,67.1583,67.4000,,,,, ,, , ,26.9299,,26.9276,,0.7526,82.8484,,,,3.6947E+00,,1.0000E-12,,6.3877,6.3920,0.8849,118.995,5.685,5.654,,,,,,,,,,,,
CalCOFI,2101RL,060,,2101_060u,31-Jan-2021 02:20:16,30-Jan-2021 18:20:16,34.31551,-120.80575,080.0 055.0,080.0,055.0,500.000,504.220,,6.4376,,6.4365,,6.4371,34.2747,,34.2805,34.2730,,34.2750,34.2778,0.3919,,0.4101,0.4411,0.3952,,0.4177,0.4585,0.4498,17.045,18.1029,67.6536,17.188,19.4067,67.2265,67.4401,,,,, ,, , ,26.9291,,26.9279,,0.7521,82.8599,,,,3.6947E+00,,1.0000E-12,,6.3920,6.3909,0.8849,119.058,5.703,5.751,,,,,,,,,,,,
CalCOFI,2101RL,060,,2101_060u,31-Jan-2021 02:20:17,30-Jan-2021 18:20:17,34.31550,-120.80576,080.0 055.0,080.0,055.0,499.000,503.211,,6.4435,,6.4406,,6.4421,34.2746,,34.2804,34.2729,,34.2749,34.2777,0.3926,,0.4108,0.4418,0.3862,,0.4082,0.4489,0.4454,17.076,18.1354,67.6607,16.794,19.4412,67.1338,67.3973,,,,, ,, , ,26.9282,,26.9273,,0.7523,82.8551,,,,3.6947E+00,,1.0000E-12,,6.3980,6.3951,0.8849,119.134,5.715,5.620,,,,,,,,,,,,
CalCOFI,2101RL,060,,2101_060u,31-Jan-2021 02:20:17,30-Jan-2021 18:20:17,34.31550,-120.80576,080.0 055.0,080.0,055.0,498.000,502.201,,6.4464,,6.4457,,6.4461,34.2747,,34.2805,34.2725,,34.2745,34.2775,0.3901,,0.4082,0.4392,0.3866,,0.4086,0.4493,0.4443,16.965,18.0192,67.6355,16.815,19.3178,67.1387,67.3871,,,,, ,, , ,26.9279,,26.9262,,0.7526,82.8498,,,,3.6947E+00,,1.0000E-12,,6.4010,6.4003,0.8849,119.154,5.678,5.627,,,,,,,,,,,,
CalCOFI,2101RL,060,,2101_060u,31-Jan-2021 02:20:18,30-Jan-2021 18:20:18,34.31550,-120.80576,080.0 055.0,080.0,055.0,497.000,501.191,,6.4482,,6.4497,,6.4490,34.2741,,34.2799,34.2722,,34.2742,34.2771,0.3945,,0.4128,0.4438,0.3957,,0.4183,0.4590,0.4514,17.156,18.2191,67.6788,17.209,19.5302,67.2315,67.4552,,,,, ,, , ,26.9272,,26.9255,,0.7533,82.8343,,,,3.6947E+00,,1.0000E-12,,6.4028,6.4043,0.8849,119.203,5.742,5.760,,,,,,,,,,,,
CalCOFI,2101RL,060,,2101_060u,31-Jan-2021 02:20:19,30-Jan-2021 18:20:19,34.31550,-120.80576,080.0 055.0,080.0,055.0,496.000,500.182,,6.4516,,6.4531,,6.4524,34.2734,,34.2792,34.2715,,34.2735,34.2764,0.3971,,0.4155,0.4466,0.3985,,0.4212,0.4620,0.4543,17.271,18.3395,67.7049,17.329,19.6580,67.2597,67.4823,,,,, ,, , ,26.9262,,26.9244,,0.7543,82.8152,,,,3.6947E+00,,1.0000E-12,,6.4063,6.4078,0.8849,119.289,5.781,5.800,,,,,,,,,,,,
CalCOFI,2101RL,060,,2101_060u,31-Jan-2021 02:20:20,30-Jan-2021 18:20:20,34.31554,-120.80578,080.0 055.0,080.0,055.0,495.000,499.172,,6.4602,,6.4616,,6.4609,34.2728,,34.2786,34.2707,,34.2727,34.2757,0.3993,,0.4178,0.4489,0.3899,,0.4121,0.4528,0.4509,17.364,18.4368,67.7260,16.955,19.7615,67.1717,67.4489,,,,, ,, , ,26.9246,,26.9227,,0.7562,82.7735,,,,3.6947E+00,,1.0000E-12,,6.4150,6.4164,0.8849,119.436,5.813,5.676,,,,,,,,,,,,
CalCOFI,2101RL,060,,2101_060u,31-Jan-2021 02:20:20,30-Jan-2021 18:20:20,34.31554,-120.80578,080.0 055.0,080.0,055.0,494.000,498.162,,6.4646,,6.4645,,6.4646,34.2724,,34.2782,34.2703,,34.2723,34.2753,0.3991,,0.4176,0.4487,0.3927,,0.4151,0.4558,0.4523,17.356,18.4285,67.7242,17.080,19.7526,67.2011,67.4627,,,,, ,, , ,26.9237,,26.9220,,0.7574,82.7492,,,,3.6947E+00,,1.0000E-12,,6.4195,6.4194,0.8849,119.510,5.811,5.719,,,,,,,,,,,,
CalCOFI,2101RL,060,,2101_060u,31-Jan-2021 02:20:21,30-Jan-2021 18:20:21,34.31554,-120.80578,080.0 055.0,080.0,055.0,493.000,497.153,,6.4680,,6.4663,,6.4672,34.2721,,34.2779,34.2701,,34.2721,34.2750,0.3970,,0.4154,0.4465,0.3982,,0.4209,0.4617,0.4541,17.265,18.3332,67.7035,17.317,19.6514,67.2569,67.4802,,,,, ,, , ,26.9230,,26.9216,,0.7565,82.7669,,,,3.6947E+00,,1.0000E-12,,6.4230,6.4213,0.8849,119.565,5.781,5.798,,,,,,,,,,,,
CalCOFI,2101RL,060,,2101_060u,31-Jan-2021 02:20:22,30-Jan-2021 18:20:22,34.31554,-120.80578,080.0 055.0,080.0,055.0,492.000,496.143,,6.4676,,6.4678,,6.4677,34.2721,,34.2779,34.2697,,34.2717,34.2748,0.4015,,0.4201,0.4512,0.3986,,0.4214,0.4621,0.4567,17.459,18.5363,67.7475,17.335,19.8671,67.2611,67.5043,,,,, ,, , ,26.9230,,26.9211,,0.7583,82.7317,,,,3.6947E+00,,1.0000E-12,,6.4227,6.4229,0.8849,119.544,5.846,5.804,,,,,,,,,,,,
CalCOFI,2101RL,060,,2101_060u,31-Jan-2021 02:20:23,30-Jan-2021 18:20:23,34.31554,-120.80578,080.0 055.0,080.0,055.0,491.000,495.134,,6.4735,,6.4726,,6.4731,34.2712,,34.2770,34.2692,,34.2712,34.2741,0.4014,,0.4200,0.4511,0.3960,,0.4186,0.4593,0.4552,17.455,18.5321,67.7466,17.223,19.8626,67.2348,67.4907,,,,, ,, , ,26.9215,,26.9200,,0.7617,82.6609,,,,3.6947E+00,,1.0000E-12,,6.4287,6.4278,0.8849,119.679,5.845,5.768,,,,,,,,,,,,
CalCOFI,2101RL,060,,2101_060u,31-Jan-2021 02:20:24,30-Jan-2021 18:20:24,34.31554,-120.80578,080.0 055.0,080.0,055.0,490.000,494.124,,6.4753,,6.4749,,6.4751,34.2712,,34.2770,34.2692,,34.2712,34.2741,0.4045,,0.4232,0.4544,0.4016,,0.4245,0.4653,0.4599,17.591,18.6745,67.7775,17.465,20.0139,67.2917,67.5346,,,,, ,, , ,26.9213,,26.9197,,0.7639,82.6156,,,,3.6947E+00,,1.0000E-12,,6.4305,6.4301,0.8849,119.689,5.891,5.849,,,,,,,,,,,,
CalCOFI,2101RL,060,,2101_060u,31-Jan-2021 02:20:25,30-Jan-2021 18:20:25,34.31554,-120.80578,080.0 055.0,080.0,055.0,489.000,493.114,,6.4796,,6.4785,,6.4791,34.2709,,34.2767,34.2690,,34.2710,34.2739,0.4072,,0.4261,0.4572,0.4036,,0.4267,0.4674,0.4623,17.710,18.7990,67.8045,17.553,20.1462,67.3124,67.5585,,,,, ,, , ,26.9205,,26.9191,,0.7641,82.6105,,,,3.6947E+00,,1.0000E-12,,6.4350,6.4338,0.8849,119.753,5.932,5.879,,,,,,,,,,,,
CalCOFI,2101RL,060,,2101_060u,31-Jan-2021 02:20:26,30-Jan-2021 18:20:26,34.31554,-120.80578,080.0 055.0,080.0,055.0,488.000,492.105,,6.4830,,6.4809,,6.4820,34.2709,,34.2767,34.2690,,34.2710,34.2739,0.4026,,0.4213,0.4524,0.4034,,0.4265,0.4672,0.4598,17.510,18.5897,67.7591,17.545,19.9238,67.3105,67.5348,,,,, ,, , ,26.9200,,26.9187,,0.7656,82.5814,,,,3.6947E+00,,1.0000E-12,,6.4383,6.4363,0.8849,119.787,5.865,5.876,,,,,,,,,,,,
CalCOFI,2101RL,060,,2101_060u,31-Jan-2021 02:20:26,30-Jan-2021 18:20:26,34.31554,-120.80578,080.0 055.0,080.0,055.0,487.000,491.095,,6.4857,,6.4863,,6.4860,34.2706,,34.2764,34.2689,,34.2709,34.2737,0.4044,,0.4231,0.4543,0.4006,,0.4235,0.4642,0.4593,17.585,18.6682,67.7761,17.421,20.0072,67.2813,67.5287,,,,, ,, , ,26.9194,,26.9180,,0.7659,82.5739,,,,3.6947E+00,,1.0000E-12,,6.4412,6.4418,0.8849,119.832,5.891,5.835,,,,,,,,,,,,
CalCOFI,2101RL,060,,2101_060u,31-Jan-2021 02:20:27,30-Jan-2021 18:20:27,34.31554,-120.80578,080.0 055.0,080.0,055.0,486.000,490.086,,6.4906,,6.4928,,6.4917,34.2706,,34.2764,34.2684,,34.2704,34.2734,0.4080,,0.4269,0.4581,0.4049,,0.4280,0.4688,0.4635,17.743,18.8336,67.8120,17.609,20.1829,67.3256,67.5688,,,,, ,, , ,26.9187,,26.9168,,0.7671,82.5489,,,,3.6947E+00,,1.0000E-12,,6.4462,6.4483,0.8849,119.887,5.944,5.900,,,,,,,,,,,,
CalCOFI,2101RL,060,,2101_060u,31-Jan-2021 02:20:27,30-Jan-2021 18:20:27,34.31554,-120.80578,080.0 055.0,080.0,055.0,485.000,489.076,,6.4970,,6.4974,,6.4972,34.2701,,34.2759,34.2682,,34.2702,34.2731,0.4108,,0.4298,0.4610,0.4118,,0.4354,0.4762,0.4686,17.866,18.9623,67.8399,17.909,20.3197,67.3962,67.6181,,,,, ,, , ,26.9175,,26.9159,,0.7680,82.5294,,,,3.6947E+00,,1.0000E-12,,6.4526,6.4530,0.8849,119.992,5.986,6.001,,,,,,,,,,,,
CalCOFI,2101RL,060,,2101_060u,31-Jan-2021 02:20:28,30-Jan-2021 18:20:28,34.31554,-120.80578,080.0 055.0,080.0,055.0,484.000,488.066,,6.5038,,6.5033,,6.5036,34.2697,,34.2755,34.2677,,34.2697,34.2726,0.4066,,0.4254,0.4566,0.4127,,0.4363,0.4771,0.4669,17.681,18.7687,67.7979,17.950,20.1140,67.4058,67.6019,,,,, ,, , ,26.9163,,26.9148,,0.7690,82.5111,,,,3.6947E+00,,1.0000E-12,,6.4595,6.4590,0.8849,120.099,5.925,6.015,,,,,,,,,,,,
CalCOFI,2101RL,060,,2101_060u,31-Jan-2021 02:20:29,30-Jan-2021 18:20:29,34.31554,-120.80578,080.0 055.0,080.0,055.0,483.000,487.057,,6.5067,,6.5085,,6.5076,34.2691,,34.2749,34.2669,,34.2689,34.2719,0.4050,,0.4238,0.4549,0.4044,,0.4275,0.4683,0.4616,17.613,18.6975,67.7825,17.587,20.0383,67.3204,67.5515,,,,, ,, , ,26.9154,,26.9134,,0.7678,82.5347,,,,3.6947E+00,,1.0000E-12,,6.4625,6.4642,0.8849,120.172,5.903,5.894,,,,,,,,,,,,
CalCOFI,2101RL,060,,2101_060u,31-Jan-2021 02:20:31,30-Jan-2021 18:20:31,34.31554,-120.80580,080.0 055.0,080.0,055.0,482.000,486.047,,6.5002,,6.5092,,6.5047,34.2698,,34.2756,34.2673,,34.2693,34.2725,0.4115,,0.4306,0.4617,0.4129,,0.4365,0.4773,0.4695,17.896,18.9937,67.8467,17.959,20.3530,67.4079,67.6273,,,,, ,, , ,26.9168,,26.9137,,0.7672,82.5462,,,,3.6947E+00,,1.0000E-12,,6.4561,6.4651,0.8849,120.018,5.997,6.019,,,,,,,,,,,,
CalCOFI,2101RL,060,,2101_060u,31-Jan-2021 02:20:32,30-Jan-2021 18:20:32,34.31555,-120.80580,080.0 055.0,080.0,055.0,481.000,485.038,,6.5052,,6.5104,,6.5078,34.2692,,34.2750,34.2668,,34.2688,34.2719,0.4224,,0.4420,0.4732,0.4154,,0.4392,0.4800,0.4766,18.368,19.4878,67.9537,18.067,20.8779,67.4334,67.6936,,,,, ,, , ,26.9156,,26.9131,,0.7679,82.5316,,,,3.6947E+00,,1.0000E-12,,6.4611,6.4664,0.8849,120.116,6.156,6.055,,,,,,,,,,,,
CalCOFI,2101RL,060,,2101_060u,31-Jan-2021 02:20:33,30-Jan-2021 18:20:33,34.31556,-120.80580,080.0 055.0,080.0,055.0,480.000,484.028,,6.5101,,6.5152,,6.5127,34.2690,,34.2748,34.2672,,34.2692,34.2720,0.4319,,0.4519,0.4832,0.4228,,0.4471,0.4879,0.4856,18.784,19.9233,68.0481,18.385,21.3405,67.5082,67.7782,,,,, ,, , ,26.9149,,26.9128,,0.7719,82.4501,,,,3.6947E+00,,1.0000E-12,,6.4661,6.4712,0.8849,120.179,6.296,6.163,,,,,,,,,,,,
CalCOFI,2101RL,060,,2101_060u,31-Jan-2021 02:20:34,30-Jan-2021 18:20:34,34.31556,-120.80580,080.0 055.0,080.0,055.0,479.000,483.018,,6.5612,,6.5608,,6.5610,34.2662,,34.2720,34.2638,,34.2658,34.2689,0.4368,,0.4571,0.4884,0.4208,,0.4449,0.4858,0.4871,18.997,20.1463,68.0964,18.302,21.5774,67.4887,67.7926,,,,, ,, , ,26.9058,,26.9040,,0.7727,82.4329,,,,3.6947E+00,,1.0000E-12,,6.5172,6.5168,0.8849,121.072,6.375,6.141,,,,,,,,,,,,
CalCOFI,2101RL,060,,2101_060u,31-Jan-2021 02:20:35,30-Jan-2021 18:20:35,34.31556,-120.80580,080.0 055.0,080.0,055.0,478.000,482.009,,6.5773,,6.5746,,6.5760,34.2654,,34.2712,34.2635,,34.2655,34.2684,0.4435,,0.4641,0.4954,0.4352,,0.4602,0.5011,0.4983,19.288,20.4509,68.1624,18.929,21.9010,67.6362,67.8993,,,,, ,, , ,26.9031,,26.9020,,0.7703,82.4824,,,,3.6947E+00,,1.0000E-12,,6.5333,6.5306,0.8849,121.332,6.474,6.354,,,,,,,,,,,,
CalCOFI,2101RL,060,,2101_060u,31-Jan-2021 02:20:36,30-Jan-2021 18:20:36,34.31556,-120.80580,080.0 055.0,080.0,055.0,477.000,480.999,,6.5965,,6.5909,,6.5937,34.2651,,34.2709,34.2633,,34.2653,34.2681,0.4495,,0.4703,0.5017,0.4415,,0.4669,0.5078,0.5048,19.550,20.7251,68.2219,19.199,22.1923,67.6997,67.9608,,,,, ,, , ,26.9003,,26.8997,,0.7680,82.5307,,,,3.6947E+00,,1.0000E-12,,6.5525,6.5470,0.8849,121.603,6.565,6.447,,,,,,,,,,,,
CalCOFI,2101RL,060,,2101_060u,31-Jan-2021 02:20:37,30-Jan-2021 18:20:37,34.31556,-120.80580,080.0 055.0,080.0,055.0,476.000,479.990,,6.6175,,6.6140,,6.6158,34.2643,,34.2701,34.2626,,34.2646,34.2674,0.4562,,0.4774,0.5088,0.4449,,0.4705,0.5115,0.5102,19.842,21.0308,68.2881,19.347,22.5170,67.7346,68.0114,,,,, ,, , ,26.8969,,26.8961,,0.7665,82.5627,,,,3.6947E+00,,1.0000E-12,,6.5736,6.5701,0.8849,121.934,6.666,6.500,,,,,,,,,,,,
CalCOFI,2101RL,060,,2101_060u,31-Jan-2021 02:20:37,30-Jan-2021 18:20:37,34.31556,-120.80580,080.0 055.0,080.0,055.0,475.000,478.980,,6.6466,,6.6433,,6.6450,34.2629,,34.2687,34.2612,,34.2632,34.2660,0.4583,,0.4796,0.5110,0.4499,,0.4758,0.5168,0.5139,19.933,21.1261,68.3088,19.567,22.6182,67.7863,68.0476,,,,, ,, , ,26.8920,,26.8911,,0.7665,82.5618,,,,3.6947E+00,,1.0000E-12,,6.6026,6.5994,0.8849,122.414,6.701,6.578,,,,,,,,,,,,
CalCOFI,2101RL,060,,2101_060u,31-Jan-2021 02:20:38,30-Jan-2021 18:20:38,34.31556,-120.80580,080.0 055.0,080.0,055.0,474.000,477.971,,6.6623,,6.6629,,6.6626,34.2623,,34.2681,34.2603,,34.2623,34.2652,0.4548,,0.4759,0.5073,0.4500,,0.4759,0.5169,0.5121,19.781,20.9670,68.2743,19.570,22.4492,67.7870,68.0307,,,,, ,, , ,26.8894,,26.8877,,0.7648,82.5966,,,,3.6947E+00,,1.0000E-12,,6.6184,6.6190,0.8849,122.659,6.653,6.582,,,,,,,,,,,,
CalCOFI,2101RL,060,,2101_060u,31-Jan-2021 02:20:39,30-Jan-2021 18:20:39,34.31556,-120.80580,080.0 055.0,080.0,055.0,473.000,476.961,,6.6756,,6.6765,,6.6761,34.2616,,34.2674,34.2592,,34.2612,34.2643,0.4570,,0.4782,0.5096,0.4481,,0.4739,0.5149,0.5123,19.873,21.0633,68.2951,19.489,22.5515,67.7680,68.0316,,,,, ,, , ,26.8870,,26.8850,,0.7644,82.6046,,,,3.6947E+00,,1.0000E-12,,6.6317,6.6327,0.8849,122.881,6.686,6.556,,,,,,,,,,,,
CalCOFI,2101RL,060,,2101_060u,31-Jan-2021 02:20:39,30-Jan-2021 18:20:39,34.31556,-120.80580,080.0 055.0,080.0,055.0,472.000,475.952,,6.6829,,6.6836,,6.6833,34.2608,,34.2666,34.2590,,34.2610,34.2638,0.4563,,0.4775,0.5089,0.4542,,0.4804,0.5214,0.5152,19.845,21.0339,68.2888,19.754,22.5204,67.8303,68.0596,,,,, ,, , ,26.8855,,26.8839,,0.7663,82.5670,,,,3.6947E+00,,1.0000E-12,,6.6391,6.6398,0.8849,123.021,6.677,6.647,,,,,,,,,,,,
CalCOFI,2101RL,060,,2101_060u,31-Jan-2021 02:20:40,30-Jan-2021 18:20:40,34.31556,-120.80580,080.0 055.0,080.0,055.0,471.000,474.942,,6.6825,,6.6895,,6.6860,34.2613,,34.2671,34.2583,,34.2603,34.2637,0.4565,,0.4777,0.5091,0.4530,,0.4791,0.5201,0.5146,19.853,21.0423,68.2906,19.702,22.5293,67.8181,68.0544,,,,, ,, , ,26.8858,,26.8826,,0.7669,82.5534,,,,3.6947E+00,,1.0000E-12,,6.6388,6.6457,0.8849,122.968,6.680,6.630,,,,,,,,,,,,
CalCOFI,2101RL,060,,2101_060u,31-Jan-2021 02:20:41,30-Jan-2021 18:20:41,34.31556,-120.80580,080.0 055.0,080.0,055.0,470.000,473.933,,6.6769,,6.6873,,6.6821,34.2612,,34.2670,34.2577,,34.2597,34.2634,0.4583,,0.4796,0.5110,0.4552,,0.4815,0.5225,0.5168,19.930,21.1229,68.3081,19.797,22.6149,67.8405,68.0743,,,,, ,, , ,26.8865,,26.8824,,0.7659,82.5742,,,,3.6947E+00,,1.0000E-12,,6.6333,6.6437,0.8849,122.885,6.705,6.662,,,,,,,,,,,,
CalCOFI,2101RL,060,,2101_060u,31-Jan-2021 02:20:42,30-Jan-2021 18:20:42,34.31556,-120.80580,080.0 055.0,080.0,055.0,469.000,472.923,,6.6782,,6.6835,,6.6809,34.2602,,34.2660,34.2594,,34.2614,34.2637,0.4618,,0.4832,0.5147,0.4586,,0.4851,0.5261,0.5204,20.083,21.2831,68.3428,19.944,22.7850,67.8750,68.1089,,,,, ,, , ,26.8855,,26.8842,,0.7664,82.5629,,,,3.6947E+00,,1.0000E-12,,6.6347,6.6399,0.8849,122.963,6.756,6.711,,,,,,,,,,,,
CalCOFI,2101RL,060,,2101_060u,31-Jan-2021 02:20:44,30-Jan-2021 18:20:44,34.31556,-120.80580,080.0 055.0,080.0,055.0,468.000,471.914,,6.6944,,6.6904,,6.6924,34.2596,,34.2654,34.2579,,34.2599,34.2627,0.4642,,0.4857,0.5172,0.4547,,0.4809,0.5219,0.5196,20.187,21.3920,68.3664,19.774,22.9007,67.8350,68.1007,,,,, ,, , ,26.8829,,26.8821,,0.7697,82.4960,,,,3.6947E+00,,1.0000E-12,,6.6509,6.6470,0.8849,123.209,6.794,6.655,,,,,,,,,,,,
CalCOFI,2101RL,060,,2101_060u,31-Jan-2021 02:20:45,30-Jan-2021 18:20:45,34.31556,-120.80580,080.0 055.0,080.0,055.0,467.000,470.904,,6.7033,,6.7039,,6.7036,34.2585,,34.2643,34.2567,,34.2587,34.2615,0.4666,,0.4882,0.5197,0.4604,,0.4870,0.5280,0.5239,20.291,21.5008,68.3900,20.023,23.0163,67.8936,68.1418,,,,, ,, , ,26.8808,,26.8793,,0.7740,82.4066,,,,3.6947E+00,,1.0000E-12,,6.6599,6.6605,0.8849,123.402,6.831,6.740,,,,,,,,,,,,
CalCOFI,2101RL,060,,2101_060u,31-Jan-2021 02:20:45,30-Jan-2021 18:20:45,34.31556,-120.80580,080.0 055.0,080.0,055.0,466.000,469.895,,6.7061,,6.7048,,6.7055,34.2583,,34.2641,34.2566,,34.2586,34.2614,0.4684,,0.4901,0.5216,0.4624,,0.4891,0.5301,0.5259,20.373,21.5867,68.4086,20.112,23.1075,67.9146,68.1616,,,,, ,, , ,26.8803,,26.8791,,0.7789,82.3061,,,,3.6947E+00,,1.0000E-12,,6.6628,6.6615,0.8849,123.439,6.859,6.770,,,,,,,,,,,,
CalCOFI,2101RL,060,,2101_060u,31-Jan-2021 02:20:46,30-Jan-2021 18:20:46,34.31556,-120.80580,080.0 055.0,080.0,055.0,465.000,468.885,,6.7112,,6.7082,,6.7097,34.2581,,34.2639,34.2564,,34.2584,34.2612,0.4695,,0.4913,0.5228,0.4745,,0.5020,0.5431,0.5330,20.419,21.6348,68.4190,20.638,23.1587,68.0384,68.2287,,,,, ,, , ,26.8794,,26.8785,,0.7836,82.2088,,,,3.6947E+00,,1.0000E-12,,6.6680,6.6650,0.8849,123.517,6.875,6.948,,,,,,,,,,,,
CalCOFI,2101RL,060,,2101_060u,31-Jan-2021 02:20:47,30-Jan-2021 18:20:47,34.31556,-120.80580,080.0 055.0,080.0,055.0,464.000,467.876,,6.7196,,6.7209,,6.7203,34.2572,,34.2630,34.2556,,34.2576,34.2603,0.4716,,0.4935,0.5250,0.4646,,0.4915,0.5325,0.5288,20.509,21.7290,68.4394,20.205,23.2587,67.9365,68.1880,,,,, ,, , ,26.8776,,26.8761,,0.7855,82.1703,,,,3.6947E+00,,1.0000E-12,,6.6765,6.6778,0.8849,123.676,6.906,6.804,,,,,,,,,,,,
CalCOFI,2101RL,060,,2101_060u,31-Jan-2021 02:20:48,30-Jan-2021 18:20:48,34.31556,-120.80580,080.0 055.0,080.0,055.0,463.000,466.866,,6.7290,,6.7251,,6.7271,34.2573,,34.2631,34.2551,,34.2571,34.2601,0.4810,,0.5033,0.5349,0.4642,,0.4910,0.5321,0.5335,20.917,22.1561,68.5320,20.190,23.7124,67.9329,68.2325,,,,, ,, , ,26.8764,,26.8752,,0.7849,82.1821,,,,3.6947E+00,,1.0000E-12,,6.6859,6.6820,0.8849,123.787,7.045,6.800,,,,,,,,,,,,